Location: Bishopstone
(51.0167°N, 1.9000°W)
Time: 14:04:36
(UTC+00:00)

NOAA 15 - Visible Passes

Search period start: 25 January 2020 00:00
Search period end: 04 February 2020 00:00
Orbit: 798 x 812 km, 98.7° (Epoch: 24 January)

Date Brightness Start Highest point End Pass type
(mag) Time Alt. Az. Time Alt. Az. Time Alt. Az.
25 Jan 7.6 06:17:14 10° NE 06:20:32 16° E 06:23:50 10° SE visible
25 Jan 5.0 17:41:36 10° SE 17:46:32 42° ENE 17:51:30 10° N visible
25 Jan 6.2 19:21:37 10° SSW 19:26:24 35° W 19:31:14 10° NNW visible
26 Jan 5.4 17:17:12 10° ESE 17:21:39 29° ENE 17:26:07 10° N visible
26 Jan 5.3 18:56:01 10° S 19:01:10 54° W 19:06:23 10° NNW visible
27 Jan 6.3 07:05:42 10° NNE 07:10:41 39° E 07:15:39 10° SSE visible
27 Jan 4.6 18:30:44 10° SSE 18:36:00 84° WSW 18:41:21 10° NNW visible
27 Jan 7.5 20:13:48 10° WSW 20:16:37 14° W 20:19:27 10° NW visible
28 Jan 7.1 06:41:00 10° NE 06:45:23 25° E 06:49:44 10° SSE visible
28 Jan 4.6 18:05:45 10° SSE 18:10:57 64° ENE 18:16:13 10° N visible
28 Jan 6.9 19:47:04 10° SW 19:51:10 23° W 19:55:19 10° NW visible
29 Jan 7.6 06:16:42 10° NE 06:19:58 16° E 06:23:13 10° SE visible
29 Jan 5.0 17:41:03 10° SE 17:45:59 42° ENE 17:50:57 10° N visible
29 Jan 6.2 19:21:02 10° SSW 19:25:50 35° W 19:30:42 10° NNW visible
30 Jan 5.3 18:55:26 10° S 19:00:36 55° W 19:05:50 10° NNW visible
31 Jan 6.3 07:05:09 10° NNE 07:10:08 38° E 07:15:04 10° SSE visible
31 Jan 4.6 18:30:09 10° SSE 18:35:27 85° WSW 18:40:48 10° NNW visible
31 Jan 7.5 20:13:10 10° WSW 20:16:02 15° W 20:18:56 10° NW visible
01 Feb 7.2 06:40:28 10° NE 06:44:48 25° E 06:49:09 10° SSE visible
01 Feb 4.6 18:05:11 10° SSE 18:10:23 63° ENE 18:15:39 10° N visible
01 Feb 6.9 19:46:27 10° SW 19:50:36 23° W 19:54:47 10° NW visible
02 Feb 7.6 06:16:11 10° NE 06:19:24 16° E 06:22:36 10° SE visible
02 Feb 5.0 17:40:30 10° SE 17:45:25 41° ENE 17:50:23 10° N visible
02 Feb 6.2 19:20:26 10° SSW 19:25:16 36° W 19:30:09 10° NNW visible
03 Feb 5.3 18:54:51 10° S 19:00:01 56° WSW 19:05:16 10° NNW visible
